Weather History for KTCM - March, 2012

Change the Weather History Date:

Friday, March 30, 2012

  Actual Average Record
Temperature  
Mean Temperature 44 °F -  
Max Temperature 51 °F 52 °F 72 °F (1995)
Min Temperature 39 °F 33 °F 27 °F (1968)
Degree Days  
Heating Degree Days 20    
Moisture  
Dew Point 43 °F    
Average Humidity 90    
Maximum Humidity 100    
Minimum Humidity 66    
Precipitation  
Precipitation 0.23 in - - ()
Sea Level Pressure  
Sea Level Pressure 29.60 in    
Wind  
Wind Speed 6 mph (SSW)    
Max Wind Speed 24 mph    
Max Gust Speed 33 mph    
Visibility 9 miles    
Events Rain    
Averages and records for this station are not official NWS values.
T = Trace of Precipitation, MM = Missing Value Source: NWS Daily Summary

Daily Weather History Graph

Daily Weather History Graph

Search for Another Location

Airport or City:

Trip Planner

Search our weather history database for the weather conditions in past years. The results will help you decide how hot, cold, wet, or windy it might be!

Date:

Astronomy

Mar. 30, 2012 Rise Set
Actual Time 6:51 AM PDT 7:37 PM PDT
Civil Twilight 6:20 AM PDT 8:08 PM PDT
Nautical Twilight 5:44 AM PDT 8:45 PM PDT
Astronomical Twilight 5:05 AM PDT 9:23 PM PDT
Moon 11:45 AM PDT (3/30) 2:36 AM PDT (3/30)
Length of Visible Light 13h 47m
Length of Day
12h 45m
Waxing Crescent, 50% of the Moon is Illuminated
Mar 30
Waxing Crescent
Mar 30
First Quarter
Apr 6
Full
Apr 13
Last Quarter
Apr 21
New

Hourly Weather History & Observations

Time (PDT) Temp. Windchill Dew Point Humidity Pressure Visibility Wind Dir Wind Speed Gust Speed Precip Events Conditions
12:39 AM 44.6 °F 43.1 °F 44.6 °F 100% 29.49 in 10.0 mi SE 3.5 mph - N/A Rain Light Rain
12:42 AM 44.6 °F 43.1 °F 44.6 °F 100% 29.50 in 10.0 mi SE 3.5 mph - N/A Rain Light Rain
12:47 AM 44.6 °F 43.1 °F 44.6 °F 100% 29.50 in 9.0 mi SSE 3.5 mph - N/A Rain Light Rain
12:55 AM 44.6 °F 43.1 °F 44.2 °F 99% 29.51 in 10.0 mi South 3.5 mph - 0.02 in Rain Light Rain
1:03 AM 44.6 °F 42.2 °F 44.6 °F 100% 29.52 in 8.0 mi SSW 4.6 mph - N/A Rain Light Rain
1:18 AM 44.6 °F - 44.6 °F 100% 29.50 in 6.0 mi Calm Calm - N/A Rain Light Rain
1:30 AM 44.6 °F 42.2 °F 44.6 °F 100% 29.49 in 10.0 mi SE 4.6 mph - N/A Rain Light Rain
1:34 AM 44.6 °F 42.2 °F 44.6 °F 100% 29.49 in 10.0 mi ESE 4.6 mph - N/A Rain Light Rain
1:55 AM 44.2 °F 42.7 °F 44.1 °F 99% 29.52 in 8.0 mi South 3.5 mph - 0.05 in Rain Light Rain
2:15 AM 44.6 °F 42.2 °F 44.6 °F 100% 29.50 in 9.0 mi South 4.6 mph - N/A Rain Light Rain
2:26 AM 44.6 °F 40.2 °F 44.6 °F 100% 29.52 in 10.0 mi South 8.1 mph - N/A   Overcast
2:33 AM 44.6 °F 41.4 °F 44.6 °F 100% 29.51 in 10.0 mi South 5.8 mph - N/A Rain Light Rain
2:39 AM 44.6 °F 42.2 °F 44.6 °F 100% 29.50 in 10.0 mi SSE 4.6 mph - N/A Rain Light Rain
2:42 AM 44.6 °F 40.7 °F 44.6 °F 100% 29.51 in 10.0 mi South 6.9 mph - N/A   Overcast
2:55 AM 44.4 °F 40.5 °F 44.1 °F 99% 29.49 in 10.0 mi SE 6.9 mph - 0.03 in   Overcast
3:08 AM 44.6 °F 41.4 °F 44.6 °F 100% 29.50 in 10.0 mi SE 5.8 mph - N/A Rain Light Rain
3:54 AM 44.6 °F - 44.6 °F 100% 29.50 in 10.0 mi Calm Calm - N/A Rain Light Rain
3:55 AM 44.2 °F - 44.1 °F 99% 29.50 in 10.0 mi Calm Calm - 0.01 in Rain Light Rain
3:56 AM 44.6 °F - 44.6 °F 100% 29.50 in 10.0 mi Calm Calm - N/A   Overcast
4:04 AM 44.6 °F - 44.6 °F 100% 29.50 in 10.0 mi Calm Calm - N/A   Light Drizzle
4:13 AM 44.6 °F 43.1 °F 44.6 °F 100% 29.50 in 6.0 mi WSW 3.5 mph - N/A Rain Light Rain
4:15 AM 44.6 °F 42.2 °F 44.6 °F 100% 29.51 in 5.0 mi West 4.6 mph - N/A Rain Light Rain
4:16 AM 44.6 °F 43.1 °F 44.6 °F 100% 29.51 in 4.0 mi WNW 3.5 mph - N/A Rain Light Rain
4:17 AM 44.6 °F 43.1 °F 44.6 °F 100% 29.51 in 4.0 mi West 3.5 mph - N/A Rain Light Rain
4:18 AM 44.6 °F 42.2 °F 44.6 °F 100% 29.51 in 4.0 mi West 4.6 mph - N/A Rain Light Rain
4:20 AM 44.6 °F 40.7 °F 44.6 °F 100% 29.51 in 3.0 mi West 6.9 mph - N/A Rain Rain
4:36 AM 44.6 °F 42.2 °F 44.6 °F 100% 29.51 in 7.0 mi SSW 4.6 mph - N/A Rain Light Rain
4:47 AM 44.6 °F 43.1 °F 44.6 °F 100% 29.50 in 10.0 mi South 3.5 mph - N/A   Mostly Cloudy
4:55 AM 43.2 °F 40.5 °F 42.8 °F 99% 29.50 in 10.0 mi South 4.6 mph - 0.04 in   Mostly Cloudy
5:23 AM 42.8 °F 39.3 °F 42.8 °F 100% 29.53 in 10.0 mi SW 5.8 mph - N/A Rain Light Rain
5:27 AM 42.8 °F 38.6 °F 42.8 °F 100% 29.53 in 8.0 mi SW 6.9 mph - N/A Rain Light Rain
5:50 AM 44.6 °F 40.7 °F 44.6 °F 100% 29.54 in 6.0 mi WSW 6.9 mph - N/A Rain Light Rain
5:55 AM 44.6 °F 40.2 °F 44.4 °F 99% 29.55 in 6.0 mi West 8.1 mph - 0.07 in Rain Light Rain
6:03 AM 44.6 °F 39.2 °F 44.6 °F 100% 29.55 in 6.0 mi WSW 10.4 mph - N/A Rain Light Rain
6:07 AM 44.6 °F 38.8 °F 42.8 °F 93% 29.54 in 9.0 mi WSW 11.5 mph - N/A Rain Light Rain
6:40 AM 42.8 °F 39.3 °F 42.8 °F 100% 29.55 in 10.0 mi SW 5.8 mph - N/A   Overcast
6:55 AM 43.2 °F 39.7 °F 42.6 °F 98% 29.55 in 10.0 mi SSW 5.8 mph - 0.01 in   Overcast
7:55 AM 43.3 °F 37.7 °F 42.6 °F 97% 29.59 in 10.0 mi South 10.4 mph - N/A   Overcast
8:55 AM 44.2 °F 40.3 °F 43.2 °F 96% 29.62 in 10.0 mi SSW 6.9 mph - N/A   Mostly Cloudy
9:45 AM 46.4 °F 41.9 °F 42.8 °F 87% 29.63 in 10.0 mi SW 9.2 mph - N/A   Mostly Cloudy
9:55 AM 46.0 °F 43.1 °F 43.5 °F 91% 29.63 in 10.0 mi SSW 5.8 mph - N/A   Overcast
10:17 AM 46.4 °F 41.5 °F 44.6 °F 93% 29.65 in 10.0 mi SW 10.4 mph - N/A   Mostly Cloudy
10:52 AM 48.2 °F - 42.8 °F 82% 29.64 in 10.0 mi SSW 8.1 mph - N/A   Mostly Cloudy
10:55 AM 47.3 °F - 43.3 °F 86% 29.64 in 10.0 mi SW 8.1 mph - N/A   Mostly Cloudy
11:55 AM 48.7 °F - 43.7 °F 83% 29.63 in 10.0 mi SSW 5.8 mph - N/A   Overcast
12:07 PM 50.0 °F - 44.6 °F 82% 29.64 in 10.0 mi SSW 6.9 mph - N/A Rain Light Rain
12:17 PM 50.0 °F - 44.6 °F 82% 29.63 in 10.0 mi SSW 10.4 mph - N/A   Overcast
12:26 PM 50.0 °F - 44.6 °F 82% 29.63 in 10.0 mi South 9.2 mph - N/A   Mostly Cloudy
12:34 PM 50.0 °F - 42.8 °F 76% 29.63 in 10.0 mi South 15.0 mph 20.7 mph N/A Rain Light Rain
12:38 PM 50.0 °F - 44.6 °F 82% 29.64 in 10.0 mi SSW 11.5 mph 20.7 mph N/A Rain Light Rain
2:23 PM 50.0 °F - 39.2 °F 66% 29.68 in 10.0 mi SSW 17.3 mph 29.9 mph N/A Rain Light Rain
2:44 PM 48.2 °F - 41.0 °F 76% 29.68 in 10.0 mi SSW 21.9 mph 28.8 mph N/A   Mostly Cloudy
2:55 PM 47.8 °F - 41.7 °F 79% 29.69 in 10.0 mi SSW 18.4 mph 28.8 mph 0.00 in   Overcast
2:57 PM 48.2 °F - 41.0 °F 76% 29.70 in 10.0 mi SSW 18.4 mph 28.8 mph N/A Rain Light Rain
3:07 PM 48.2 °F - 41.0 °F 76% 29.71 in 10.0 mi SSW 21.9 mph 28.8 mph N/A   Overcast
3:55 PM 49.1 °F - 38.1 °F 66% 29.73 in 10.0 mi SW 24.2 mph 33.4 mph 0.00 in   Overcast
4:41 PM 48.2 °F - 37.4 °F 66% 29.75 in 10.0 mi SW 21.9 mph 28.8 mph N/A Rain Light Rain
4:42 PM 48.2 °F - 37.4 °F 66% 29.75 in 10.0 mi SW 18.4 mph 28.8 mph N/A Rain Light Rain
4:49 PM 48.2 °F - 39.2 °F 71% 29.76 in 10.0 mi SW 19.6 mph 27.6 mph N/A Rain Light Rain
4:55 PM 47.7 °F - 39.6 °F 73% 29.76 in 10.0 mi SW 21.9 mph 27.6 mph 0.00 in Rain Light Rain
5:03 PM 46.4 °F 39.2 °F 39.2 °F 76% 29.77 in 10.0 mi SW 18.4 mph 27.6 mph N/A   Scattered Clouds
5:55 PM 46.8 °F - 36.3 °F 67% 29.78 in 10.0 mi SW 18.4 mph 25.3 mph 0.00 in   Clear
6:55 PM 45.3 °F 40.1 °F 36.1 °F 70% 29.78 in 10.0 mi SW 10.4 mph - N/A   Clear
7:48 PM 44.6 °F 42.2 °F 37.4 °F 76% 29.78 in 10.0 mi SW 4.6 mph - N/A   Mostly Cloudy
7:55 PM 43.9 °F - 36.7 °F 76% 29.78 in 10.0 mi Calm Calm - N/A   Mostly Cloudy
8:23 PM 42.8 °F - 37.4 °F 81% 29.77 in 10.0 mi Calm Calm - N/A   Scattered Clouds
8:55 PM 41.4 °F 38.4 °F 38.1 °F 88% 29.76 in 10.0 mi SW 4.6 mph - N/A   Clear
9:55 PM 39.9 °F - 38.1 °F 93% 29.74 in 10.0 mi Calm Calm - N/A   Clear
10:55 PM 41.5 °F 38.6 °F 38.1 °F 88% 29.73 in 10.0 mi ENE 4.6 mph - N/A   Clear
11:55 PM 41.7 °F 38.0 °F 37.6 °F 85% 29.72 in 10.0 mi NNE 5.8 mph - N/A   Mostly Cloudy